[[{"header":{"parameterUnit":"m.s-1","parameterCategory":1,"la1":30.2991,"la2":30.254,"lo1":-89.0895,"lo2":-89.0444,"dy":0.0017,"dx":0.0017,"nx":28,"ny":28,"refTime":"2023-03-19T21:00:00:Z","depth":0,"parameterNumber":2,"parameterNumberName":"U-component_of_WINDS"},"data":[0,0,0,0,0,0,0,0,0,0,0,0,0,0,0,0,0,0,0,0,0,0,0,0,0,0,0,0,0,0,0,0,0,0,0,0,0,0,0,0,0,0,0,0,0,0,0,0,0,0,0,0,0,0,0,0,0,0,-4.1705,-4.1705,0,-4.172,-4.172,-4.172,-4.1683,-4.1682,-4.168,-4.1679,-4.1695,-4.1696,-4.1698,0,0,0,0,0,0,0,0,0,0,0,0,0,-4.1646,-4.1647,-4.1705,-4.1705,-4.1706,-4.172,-4.172,-4.172,-4.1683,-4.1682,-4.168,-4.1679,-4.1694,-4.1696,-4.1698,0,0,0,0,0,0,0,0,0,0,0,0,0,-4.1667,-4.1647,-4.1705,-4.1689,-4.1687,-4.172,-4.172,-4.172,-4.1683,-4.1682,-4.168,-4.1678,-4.1694,-4.1696,-4.1698,-4.1747,0,0,-4.1705,-4.1706,0,0,0,0,0,0,0,0,-4.1666,-4.1669,-4.1691,-4.169,-4.1688,-4.1698,-4.1705,-4.1729,-4.1684,-4.1685,-4.1679,-4.1677,-4.1697,-4.1699,-4.1706,-4.1748,-4.1749,-4.1705,-4.1707,-4.1708,-4.1708,0,0,0,0,0,0,0,-4.1664,-4.1668,-4.1711,-4.1691,-4.169,-4.1681,-4.1682,-4.1709,-4.1701,-4.1685,-4.1682,-4.1684,-4.1696,-4.1704,-4.1706,-4.1749,-4.1705,-4.1707,-4.1709,-4.171,-4.1832,-4.1834,0,0,0,0,0,0,-4.1665,-4.1667,-4.1711,-4.1711,-4.1673,-4.1683,-4.1685,-4.1697,-4.17,-4.1699,-4.1686,-4.1682,-4.1701,-4.1703,-4.1706,-4.1763,-4.1708,-4.171,-4.1711,-4.183,-4.1832,-4.1834,0,0,0,0,0,0,-4.1664,-4.1669,-4.171,-4.1689,-4.1693,-4.1686,-4.17,-4.1698,-4.1705,-4.1701,-4.17,-4.1695,-4.1699,-4.1703,-4.1737,-4.1763,-4.1711,-4.1713,-4.1828,-4.1831,-4.1833,-4.1877,0,0,0,0,0,0,-4.1662,-4.1669,-4.1687,-4.1689,-4.1695,-4.174,-4.1702,-4.1699,-4.1709,-4.1705,-4.1709,-4.1708,-4.1698,-4.1734,-4.174,-4.1765,-4.1715,-4.1825,-4.1829,-4.1833,-4.1873,-4.1881,-4.1888,0,0,0,0,0,-4.166,-4.1699,-4.1688,-4.1694,-4.1717,-4.1742,-4.1745,-4.1732,-4.1711,-4.1729,-4.1727,-4.1708,-4.176,-4.1738,-4.1744,-4.177,-4.1824,-4.1828,-4.1832,-4.187,-4.1879,-4.1887,0,0,0,0,0,0,-4.17,-4.1699,-4.1687,-4.1728,-4.1735,-4.1736,-4.1758,-4.1743,-4.1757,-4.1752,-4.1737,-4.1738,-4.1775,-4.1777,-4.1752,-4.1818,-4.1788,-4.1794,-4.1815,-4.1824,-4.1831,-4.1829,-4.1717,0,0,0,0,0,-4.1714,-4.1734,-4.1732,-4.1769,-4.1773,-4.1765,-4.1775,-4.1765,-4.1772,-4.1775,-4.1775,-4.1783,-4.1801,-4.1813,-4.1829,-4.1874,-4.1874,-4.1896,-4.1903,-4.1909,-4.1913,-4.1936,-4.1945,-4.1848,-4.1848,-4.1848,0,0,-4.1742,-4.1744,-4.1758,-4.1777,-4.1781,-4.1802,-4.1768,-4.1792,-4.1807,-4.1779,-4.181,-4.1811,-4.1819,-4.1858,-4.1876,-4.1861,-4.194,-4.1914,-4.1919,-4.192,-4.1941,-4.195,-4.1958,-4.1851,-4.1851,-4.185,0,0,-4.1804,-4.1808,-4.1838,-4.1843,-4.185,-4.1845,-4.1853,-4.1855,-4.1854,-4.1886,-4.1865,-4.1884,-4.1916,-4.1921,-4.1929,-4.1994,-4.1976,-4.2,-4.2036,-4.2059,-4.2066,-4.2073,-4.2094,-4.2102,-4.2005,-4.2005,-4.2005,0,-4.1837,-4.1868,-4.1855,-4.188,-4.1888,-4.1865,-4.1895,-4.1901,-4.1913,-4.192,-4.1903,-4.1942,-4.1946,-4.1985,-4.2001,-4.2009,-4.2016,-4.1998,-4.2066,-4.2073,-4.2079,-4.2099,-4.2107,-4.2007,-4.2007,-4.2007,-4.2006,0,-4.1908,-4.193,-4.1953,-4.1965,-4.1977,-4.2004,-4.1996,-4.2009,-4.1999,-4.1996,-4.2028,-4.2032,-4.2048,-4.2058,-4.2048,-4.2096,-4.2087,-4.2069,-4.2038,-4.2091,-4.2109,-4.2117,-4.2011,-4.201,-4.2009,-4.2009,0,0,-4.1993,-4.1998,-4.2007,-4.2012,-4.2019,-4.2035,-4.2062,-4.2077,-4.2088,-4.2099,-4.212,-4.2148,-4.2131,-4.2139,-4.2131,-4.2151,-4.22,-4.213,-4.213,-4.2141,-4.2252,-4.2263,-4.2272,-4.219,-4.2191,-4.2192,-4.225,0,-4.2052,-4.2096,-4.2086,-4.213,-4.215,-4.2128,-4.2151,-4.2158,-4.2156,-4.2173,-4.2171,-4.219,-4.2168,-4.2172,-4.2191,-4.219,-4.2221,-4.2186,-4.2208,-4.2209,-4.2204,-4.2282,-4.2295,-4.2349,-4.2258,-4.2259,-4.226,0,-4.2126,-4.2138,-4.2184,-4.2187,-4.2195,-4.2216,-4.2229,-4.2245,-4.2253,-4.225,-4.226,-4.2247,-4.2274,-4.2245,-4.2281,-4.2257,-4.2266,-4.2267,-4.2269,-4.2268,-4.2236,-4.2282,-4.2366,-4.2374,-4.2272,-4.2271,-4.227,0,-4.218,-4.2209,-4.2239,-4.2244,-4.225,-4.2265,-4.2268,-4.2274,-4.2284,-4.2296,-4.2302,-4.2318,-4.2326,-4.2339,-4.2331,-4.2311,-4.2368,-4.2339,-4.2365,-4.2365,-4.2376,-4.2374,-4.246,-4.2386,-4.2386,-4.2386,-4.2386,0,-4.2245,-4.2274,-4.2263,-4.2282,-4.2313,-4.2302,-4.2334,-4.2334,-4.234,-4.2358,-4.2342,-4.236,-4.2349,-4.2367,-4.2361,-4.2391,-4.2395,-4.2393,-4.2391,-4.2393,-4.2393,-4.2397,-4.2392,-4.2388,-4.2387,-4.2387,-4.2387,0,-4.231,-4.2305,-4.2336,-4.2339,-4.2341,-4.2363,-4.2365,-4.2383,-4.2381,-4.2404,-4.2409,-4.2405,-4.2425,-4.2419,-4.244,-4.2436,-4.2473,-4.2467,-4.247,-4.2468,-4.2494,-4.249,-4.2583,-4.2594,-4.2515,-4.2515,-4.2516,0,-4.2351,-4.2372,-4.2377,-4.2388,-4.2392,-4.241,-4.242,-4.2411,-4.2422,-4.2432,-4.2448,-4.2466,-4.248,-4.2512,-4.2511,-4.2527,-4.252,-4.2552,-4.2522,-4.2524,-4.2518,-4.2516,-4.2517,-4.2556,-4.2557,-4.2558,-4.2559,0,-4.2423,-4.2419,-4.2434,-4.2448,-4.2461,-4.2472,-4.2481,-4.2491,-4.2482,-4.2496,-4.2515,-4.2525,-4.2547,-4.2564,-4.2579,-4.2583,-4.2569,-4.2568,-4.2575,-4.2576,-4.2576,-4.2574,-4.2483,-4.2566,-4.2565,-4.2564,-4.2564,-4.2564,-4.2476,-4.2493,-4.2499,-4.2516,-4.2522,-4.2531,-4.2547,-4.2547,-4.2563,-4.2579,-4.2573,-4.2595,-4.2602,-4.262,-4.2626,-4.2643,-4.2631,-4.2641,-4.2643,-4.2645,-4.2647,-4.2575,-4.2646,-4.2646,-4.2646,-4.2646,-4.2645,0,-4.2545,-4.2548,-4.2564,-4.2577,-4.2591,-4.2577,-4.2587,-4.2599,-4.2618,-4.2626,-4.264,-4.2662,-4.2679,-4.268,-4.2697,-4.271,-4.2704,-4.2714,-4.2712,-4.2713,-4.2658,-4.265,-4.2719,-4.2719,-4.2719,-4.2719,-4.2719,-4.2719,-4.2582,-4.2611,-4.2608,-4.2639,-4.2642,-4.2663,-4.2669,-4.2678,-4.2684,-4.2709,-4.2723,-4.2723,-4.2729,-4.2745,-4.276,-4.276,-4.2766,-4.2778,-4.2776,-4.2724,-4.2717,-4.271,-4.2701,-4.278,-4.278,-4.2828,-4.2829,-4.2829]},{"header":{"parameterUnit":"m.s-1","parameterCategory":1,"la1":30.2991,"la2":30.254,"lo1":-89.0895,"lo2":-89.0444,"dy":0.0017,"dx":0.0017,"nx":28,"ny":28,"refTime":"2023-03-19T21:00:00:Z","depth":0,"parameterNumber":3,"parameterNumberName":"V-component_of_WINDS"},"data":[0,0,0,0,0,0,0,0,0,0,0,0,0,0,0,0,0,0,0,0,0,0,0,0,0,0,0,0,0,0,0,0,0,0,0,0,0,0,0,0,0,0,0,0,0,0,0,0,0,0,0,0,0,0,0,0,0,0,3.5672,3.5673,0,3.5751,3.5752,3.5753,3.5793,3.5793,3.5794,3.5794,3.587,3.5872,3.5874,0,0,0,0,0,0,0,0,0,0,0,0,0,3.5556,3.5558,3.5672,3.5673,3.5674,3.5751,3.5752,3.5753,3.5793,3.5793,3.5794,3.5794,3.587,3.5872,3.5874,0,0,0,0,0,0,0,0,0,0,0,0,0,3.5617,3.5558,3.5672,3.5704,3.5707,3.5751,3.5752,3.5753,3.5793,3.5793,3.5794,3.5794,3.5869,3.5872,3.5875,3.5891,0,0,3.5884,3.5885,0,0,0,0,0,0,0,0,3.5614,3.5622,3.5698,3.5702,3.5706,3.5763,3.5739,3.5799,3.5793,3.5761,3.5794,3.5794,3.5834,3.584,3.5854,3.5895,3.5898,3.5884,3.5886,3.5887,3.5888,0,0,0,0,0,0,0,3.5609,3.5618,3.5703,3.5699,3.5704,3.5714,3.5722,3.5751,3.5796,3.5763,3.5767,3.5776,3.5836,3.5851,3.5856,3.5899,3.5884,3.5887,3.5889,3.589,3.5959,3.5959,0,0,0,0,0,0,3.56,3.5615,3.5701,3.5706,3.5659,3.5716,3.5725,3.5744,3.5796,3.5804,3.5775,3.5777,3.5846,3.5853,3.5859,3.5883,3.5887,3.589,3.5892,3.5959,3.5959,3.5959,0,0,0,0,0,0,3.5598,3.5608,3.5698,3.5661,3.5673,3.5718,3.5738,3.5746,3.5761,3.5805,3.5813,3.5783,3.5847,3.5855,3.5884,3.5887,3.5891,3.5894,3.5959,3.5959,3.5959,3.5931,0,0,0,0,0,0,3.5594,3.5607,3.5613,3.5661,3.5675,3.5721,3.5738,3.5747,3.5766,3.5769,3.5814,3.5821,3.5847,3.5879,3.5887,3.5891,3.5896,3.5959,3.5959,3.5959,3.5932,3.593,3.5928,0,0,0,0,0,3.559,3.5601,3.5614,3.5624,3.5685,3.5721,3.5729,3.576,3.5766,3.5774,3.5802,3.582,3.5885,3.5882,3.5891,3.5896,3.5959,3.5959,3.5959,3.5932,3.593,3.5928,0,0,0,0,0,0,3.5551,3.5608,3.5622,3.5649,3.568,3.5728,3.5738,3.5757,3.5785,3.5787,3.5823,3.5833,3.5858,3.588,3.5875,3.5915,3.5924,3.5926,3.59,3.5899,3.5897,3.5891,3.5899,0,0,0,0,0,3.5546,3.5571,3.5619,3.5638,3.5653,3.5693,3.571,3.5732,3.5765,3.5777,3.5808,3.5839,3.5867,3.5884,3.5911,3.5935,3.5946,3.5943,3.5941,3.594,3.5941,3.5957,3.5956,3.596,3.596,3.596,0,0,3.5534,3.5569,3.5582,3.5631,3.5658,3.5683,3.5703,3.5729,3.5748,3.5781,3.5811,3.5834,3.5871,3.5898,3.5911,3.5916,3.5943,3.594,3.5938,3.5941,3.5957,3.5956,3.5956,3.596,3.596,3.596,0,0,3.5527,3.5555,3.5575,3.5602,3.5643,3.567,3.5675,3.572,3.5738,3.5769,3.5794,3.5817,3.5864,3.589,3.5909,3.5914,3.5932,3.5922,3.5913,3.5928,3.5928,3.5928,3.5931,3.5931,3.5923,3.5923,3.5923,0,3.5508,3.5548,3.5583,3.5608,3.5629,3.5662,3.5683,3.5707,3.5754,3.5767,3.5773,3.5834,3.5861,3.5895,3.5897,3.5911,3.5918,3.5917,3.5925,3.5926,3.5926,3.5929,3.593,3.5922,3.5922,3.5922,3.5922,0,3.5523,3.555,3.5561,3.5608,3.5631,3.5653,3.5691,3.571,3.573,3.5756,3.5788,3.5822,3.5858,3.5867,3.5886,3.5905,3.5907,3.5919,3.5928,3.5924,3.5927,3.5929,3.592,3.592,3.5921,3.5921,0,0,3.5491,3.5559,3.5563,3.5585,3.5634,3.5656,3.568,3.5717,3.5733,3.5765,3.5786,3.5826,3.5838,3.586,3.5883,3.5896,3.5899,3.5906,3.5907,3.5904,3.5923,3.5914,3.5915,3.5912,3.5912,3.5912,3.592,0,3.5491,3.5538,3.5571,3.5605,3.5631,3.5664,3.5686,3.5718,3.5743,3.5769,3.5797,3.5825,3.5838,3.5852,3.5866,3.5896,3.5904,3.5896,3.5932,3.5933,3.5922,3.5916,3.5907,3.5912,3.5921,3.5922,3.5922,0,3.5497,3.553,3.5567,3.5615,3.5627,3.5646,3.5684,3.5708,3.5746,3.5763,3.5789,3.5813,3.584,3.5848,3.5886,3.588,3.5897,3.5914,3.5915,3.592,3.5927,3.5921,3.5915,3.5916,3.5924,3.5924,3.5924,0,3.5472,3.5525,3.5555,3.5573,3.5629,3.5642,3.5666,3.5704,3.5725,3.5757,3.5771,3.5806,3.5825,3.5852,3.5884,3.5887,3.592,3.593,3.5935,3.5935,3.594,3.5939,3.5937,3.5951,3.5951,3.5951,3.5951,0,3.5468,3.5489,3.5544,3.5562,3.5588,3.5626,3.565,3.5676,3.571,3.5734,3.5764,3.5785,3.5827,3.5854,3.5879,3.5908,3.5916,3.5931,3.5938,3.5929,3.5927,3.594,3.5941,3.5951,3.5951,3.5951,3.5951,0,3.5443,3.5481,3.5516,3.5567,3.5581,3.5597,3.5641,3.566,3.5688,3.5718,3.5727,3.5771,3.5804,3.584,3.5884,3.5902,3.5929,3.5938,3.5917,3.5921,3.5925,3.5924,3.5931,3.5934,3.5945,3.5945,3.5944,0,3.5439,3.5457,3.5511,3.553,3.5554,3.5583,3.5606,3.5644,3.5666,3.5712,3.5725,3.5761,3.5792,3.5843,3.5878,3.5913,3.5923,3.5924,3.5929,3.592,3.5924,3.5923,3.5925,3.5921,3.5921,3.5921,3.5921,0,3.5427,3.5446,3.5477,3.5516,3.5542,3.5574,3.5607,3.562,3.5665,3.5688,3.5724,3.5748,3.5795,3.583,3.587,3.5894,3.5915,3.5919,3.5922,3.5913,3.5901,3.5908,3.5913,3.5919,3.5919,3.5919,3.5919,3.5919,3.5413,3.5431,3.5473,3.5507,3.5537,3.5567,3.5588,3.562,3.5651,3.5693,3.5714,3.5749,3.5788,3.5844,3.5868,3.5896,3.5902,3.5906,3.5908,3.5908,3.5906,3.5896,3.5903,3.5903,3.5903,3.5903,3.5903,0,3.5404,3.5433,3.5464,3.5511,3.5538,3.5557,3.5595,3.5617,3.5648,3.5683,3.5714,3.5755,3.579,3.5829,3.5867,3.5882,3.5893,3.589,3.589,3.5895,3.5898,3.5892,3.5881,3.5881,3.5881,3.5881,3.5881,3.5881,3.5402,3.5434,3.5457,3.5505,3.5533,3.557,3.559,3.5619,3.5647,3.5692,3.5723,3.5749,3.5785,3.5826,3.586,3.587,3.5883,3.5878,3.5891,3.5893,3.5895,3.5896,3.5891,3.588,3.588,3.5886,3.5886,3.5886]}]]